{"data":{"norad_id":66035,"epoch":"2026-09-20T18:20:32.908128Z","epoch_age_seconds":120631,"freshness":"FRESH","line1":"1 66035U 25233C   26263.76426977  .00000041  00000+0  45702-4 0  9998","line2":"2 66035  89.0064  33.5616 0001808  93.6061 266.5297 13.51012699 46087","mean_motion":13.51012699,"eccentricity":0.0001808,"inclination_deg":89.0064,"raan_deg":33.5616,"arg_perigee_deg":93.6061,"mean_anomaly_deg":266.5297,"bstar":4.5702e-5,"rev_number":4608,"period_min":106.5867109218,"perigee_km":1067.1885626941,"apogee_km":1069.8812792607,"semimajor_km":7446.6719209774,"source":"CELESTRAK","updated_at":"2026-09-21T09:00:15.731927Z"}}